User: anonymous
Location: Pine Mountain Observatory
(43.7910°N, 120.9377°W)
Time: 05:01:33
(UTC-07:00)
Language:

Meteor 2-19 Rocket - Orbit

View from above orbital plane
View from above orbital plane
View from above satellite
View from above satellite

Ground track
Ground track

The orbit data is extracted from the following two-line orbital elements,

1 20671U 90057B   14109.44945917  .00000017  00000-0  20731-5 0  9463
2 20671 082.5495 209.9614 0014148 323.5316 084.0948 13.84571053203277
Epoch (UTC): 19 April 2014 10:47:13
Eccentricity: 0.0014148
inclination: 82.5495°
perigee height: 937 km
apogee height: 958 km
right ascension of ascending node: 209.9614°
argument of perigee: 323.5316°
revolutions per day: 13.84571053
mean anomaly at epoch: 84.0948°
orbit number at epoch: 20327

The dashed part of the orbit path shows where the satellite is in the earth's shadow,  

DLR